DMSP 5D-2 F13 DEB, 40499

Orbit data source: Space-Track

DMSP 5D-2 F13 DEB, 40499 is space debris in SSO originally from a launch on Fri, 24 Mar 1995 UTC launched from the Air Force Western Test Range (AFWTR). Debris objects in space refer to the collection of defunct objects orbiting the Earth. Examples of debris include non-operational satellites, rocket bodies, and fragments generated from explosions, collisions, or faulty payload assembly.

Loading next visibility...
Identifier
40499, 1995-015CN
Orbit
SSO
Country
Flag of USUS
Related business
Manufacturer
Unknown
Mission
Spacecraft
Bus & Motor
Unknown
Mass
Unknown
Launch date (UTC)
1995-03-24 (31 years ago)
Launch vehicle
Unknown
Launch site
Air Force Western Test Range (AFWTR)
Object type
Payload
Rocket body
Debris
Shape & HBR
Unknown shape, 0.1 m
Radar Cross Section
Medium (>0.1 m² and <1 m²)

Expand to show TLE details & history
Last TLE update: 1 day ago

TLE from 1 day ago
0 DMSP 5D-2 F13 DEB
1 40499U 95015CN  26177.38111522  .00004606  00000-0  14570-2 0  9997
2 40499  98.6847 216.5998 0008066 194.3780 165.7179 14.40630056586534
Epoch: 2026-06-26T09:08Z
TLE epoch observation values (Epoch: 2026-06-26T09:08:48.355Z)
Latitude
-0.00005°
Longitude
164.88789°
Altitude
764.939 km
Speed
7.469 km/s
True Right ascension
14h 26m 23s
True Declination
0° 00' 00"
Sunlit
Object was in full shadow at epoch
Visualization orbit readout
Latitude
Unknown
Longitude
Unknown
Altitude
Unknown
Speed
Unknown
Apparent Right ascension
Unknown
Apparent Declination
Unknown
Sunlit
N/A
Visualization observer readout
Local Sidereal Time
01:11:41
Azimuth
Unknown
Elevation
Unknown
Doppler factor
Unknown
Orbital elements
Apogee altitude
759.3 km
Perigee altitude
747.795 km
Semi-major axis
7,131.684 km
Eccentricity
0.00081
Inclination
98.6847°
RAAN
216.5998°
Arg. of periapsis
194.378°
True anomaly
165.74068°
Mean anomaly
165.7179°
Eccentric anomaly
165.72929°
Mean motion
3.60375 °/min
Orbital period
99.9 mins
BSTAR
0.001457
Loading maneuver chart data...
Computing Atmospheric mass density...

Documentation

Showing up to 5 results
|